Hourly Data Report for August 24, 2020

OTTAWA INTL A
ONTARIO
Current Station Operator: NAVCAN

45°19'00.000" N
75°40'00.000" W
114.90 m
6106001
71628
YOW

Download Data

Hourly Data (August 2020)
Hourly Data Report for August 24, 2020
TIME
LST
Temp Definition
°C
Dew Point Definition
°C
Rel Hum Definition
%
Precip. Amount Definition
mm

Wind Dir Definition
10's deg

Wind Spd Definition
km/h
Visibility Definition
km
Stn Press Definition
kPa
Hmdx Definition


Wind Chill Definition


Weather Definition


00:00 18.4 17.8 96   5 8 24.1 100.13     Thunderstorms
01:00 19.1 18.2 94   34 11 12.9 100.26     Thunderstorms,Rain Showers
02:00 18.4 17.8 96   35 22 2.4 100.25     Heavy Rain Showers, Fog
03:00 18.2 17.9 98   8 10 24.1 100.12     LegendNANA
04:00 18.0 17.7 98   16 9 24.1 100.12     Cloudy
05:00 18.0 17.7 98   9 7 24.1 100.12     LegendNANA
06:00 18.1 17.8 98   2 10 12.9 100.13     Rain Showers
07:00 18.7 18.4 98   13 7 24.1 100.10     Mainly Clear
08:00 20.5 19.0 91   15 10 24.1 100.09 27   LegendNANA
09:00 21.8 19.9 89   16 10 24.1 100.08 29   LegendNANA
10:00 23.2 20.4 84   36 1 24.1 100.05 31   Mainly Clear
11:00 25.2 20.6 75   23 7 24.1 100.00 33   LegendNANA
12:00 25.7 20.6 73   25 7 24.1 99.96 34   LegendNANA
13:00 26.1 20.6 71   28 9 24.1 99.85 34   Mostly Cloudy
14:00 28.4 21.6 66   32 9 24.1 99.74 37   LegendNANA
15:00 27.4 21.6 70   32 8 24.1 99.75 36   Thunderstorms
16:00 24.4 21.3 83   18 9 24.1 99.72 33   Thunderstorms
17:00 23.2 21.0 87   12 9 24.1 99.68 32   Rain Showers
18:00 23.0 21.3 90   19 13 24.1 99.67 32   LegendNANA
19:00 21.7 19.4 87   20 6 24.1 99.61 29   Mainly Clear
20:00 21.1 19.4 90   21 8 24.1 99.60 28   LegendNANA
21:00 20.2 19.4 95   16 8 24.1 99.61 27   LegendNANA
22:00 20.1 19.3 95   20 7 24.1 99.55 27   Mainly Clear
23:00 20.5 19.7 95   21 9 24.1 99.46 28   LegendNANA

Notes on Data Quality.

Legend

  • E = Estimated
  • M = Missing
  • NA = Not Available*
  • [empty] = Indicates an unobserved value
Date modified: